Location: Roland
(31.1349°N, 85.4372°W)
Time: 18:40:56
(UTC+00:00)

SR - Pass Details

Date: 22 April 2021
Orbit: 573 x 882 km, 66.7° (Epoch: 12 May)

Event Time Altitude Azimuth Distance (km) Brightness Sun altitude
Rises 13:10:14 0° 242° (WSW) 3,277 ? 25.5°
Reaches altitude 10° 13:13:09 10° 257° (WSW) 2,401 ? 26.1°
Maximum altitude 13:17:21 21° 306° (NW) 1,790 ? 27.0°
Drops below altitude 10° 13:21:44 10° 355° (N) 2,514 ? 28.0°
Sets 13:24:54 0° 11° (N) 3,475 ? 28.7°
